Regional Weather Roundup
Issued by NWS Sterling, VA

Home | Current Version | Previous Version | Text Only | Print | Product List | Glossary On
Versions: 1 2 3 4 5 6 7 8 9 10 11 12 13 14 15 16 17 18 19 20 21 22 23 24 25 26 27 28
000
ASUS41 KLWX 240411
RWRLWX

REGIONAL WEATHER ROUNDUP
NATIONAL WEATHER SERVICE BALTIMORE MD/WASHINGTON DC
1200 AM EDT SUN SEP 24 2017

Note: "FAIR" indicates few or no clouds below 12,000 feet
with no significant weather and/or obstructions to visibility.
 TC=TEMPERATURE CELSIUS

 * =Non NWS site. Station does not report precipitation (e.g. rain,
    snow, etc.), thunder, or fog.

DCZ001-MDZ009-015-VAZ040>042-051-053>054-240500-
WASHINGTON METRO

CITY           SKY/WX    TMP DP  RH WIND       PRES   REMARKS
WASHINGTON NAT PTCLDY    73  65  75 CALM      30.08S
DULLES         CLEAR     65  63  93 W3        30.09S
ANDREWS AFB    CLEAR     62  60  95 CALM      30.07S
FT BELVOIR     CLEAR     63  62  94 CALM      30.08S
QUANTICO         N/A     68  66  93 NW7       30.08F
COLLEGE PARK*  CLEAR     63  61  95 CALM      30.07F
LEESBURG*      CLEAR     64  64 100 CALM      30.10S
MANASSAS*      CLEAR     61  61 100 CALM      30.09S
GAITHERSBURG*  CLEAR     62  60  93 CALM      30.10F

$$

MDZ006>007-011-014-240500-
BALTIMORE METRO

CITY           SKY/WX    TMP DP  RH WIND       PRES   REMARKS
BWI AIRPORT    CLEAR     63  62  97 W5        30.07S
MD SCIENCE CTR   N/A     77  57  50 MISG      30.07S
MARTIN STATE   CLEAR     68  61  77 CALM      30.07S
ANNAPOLIS      CLEAR     72  71  97 CALM      30.06F
FORT MEADE*    CLEAR     59  59 100 CALM      30.10S

$$

MDZ012-015-019>023-240500-
MARYLAND EASTERN SHORE

CITY           SKY/WX    TMP DP  RH WIND       PRES   REMARKS
OCEAN CITY     CLEAR     66  66 100 CALM      30.05F
SALISBURY      CLEAR     66  66 100 CALM      30.05F
CAMBRIDGE*     CLEAR     64  64 100 CALM      30.06S
EASTON*        CLEAR     66  64  91 CALM      30.10S

$$

MDZ017>025-240500-
SOUTHERN MARYLAND

CITY           SKY/WX    TMP DP  RH WIND       PRES   REMARKS
PATUXENT RIVER CLEAR     64  64 100 W3        30.06S
ST INIGOES     CLEAR     64  63  96 CALM      30.05F
LEONARDTOWN*   CLEAR     64  63  94 CALM      30.08F

$$

MDZ003>005-240500-
NORTH CENTRAL MARYLAND

CITY           SKY/WX    TMP DP  RH WIND       PRES   REMARKS
FREDERICK*     CLEAR     63  63 100 CALM      30.12S
HAGERSTOWN APT CLEAR     72  57  59 CALM      30.10F
WESTMINSTER*   CLEAR     68  61  77 CALM      30.11S

$$

MDZ501>502-240500-
WESTERN MARYLAND

CITY           SKY/WX    TMP DP  RH WIND       PRES   REMARKS
OAKLAND*       CLEAR     68  48  49 E8        30.20F
CUMBERLAND*    CLEAR     68  57  68 N5        30.17S

$$

VAZ025>031-240500-
SHENANDOAH VALLEY

CITY           SKY/WX    TMP DP  RH WIND       PRES   REMARKS
WINCHESTER*    CLEAR     59  57  94 CALM      30.11F
FRONT ROYAL*   CLEAR     59  57  94 CALM      30.11F
LURAY*         CLEAR     59  54  82 CALM      30.13F
NEW MARKET*    CLEAR     56  51  83 CALM      30.14S
STAUNTON*      CLEAR     55  53  92 CALM      30.17S
WAYNESBORO*    CLEAR     59  58  99 CALM      30.16S

$$

WVZ021-048>050-054>055-240500-
EASTERN WEST VIRGINIA PANHANDLE

CITY           SKY/WX    TMP DP  RH WIND       PRES   REMARKS
MARTINSBURG    CLEAR     61  56  83 CALM      30.10S
PETERSBURG*    CLEAR     60  57  89 CALM      30.15F

$$

VAZ036>039-050-240500-
CENTRAL FOOTHILLS

CITY           SKY/WX    TMP DP  RH WIND       PRES   REMARKS
CHARLOTTESVILL CLEAR     63  60  90 W3        30.11S
CULPEPER*      CLEAR     62  60  94 CALM      30.10F
ORANGE*        CLEAR     59  57  94 CALM      30.10S
GORDONSVILLE*  CLEAR     60  59  99 CALM      30.10S
WARRENTON*     CLEAR     58  55  89 CALM      30.09F

$$

VAZ055>057-240500-
NORTH AND CENTRAL PIEDMONT

CITY           SKY/WX    TMP DP  RH WIND       PRES   REMARKS
FREDERICKSBRG* CLEAR     65  65 100 CALM      30.07F
STAFFORD*      CLEAR     61  61 100 CALM      30.12S

$$

NCZ024-NYZ072-PAZ021-071-VAZ022-071-240500-
OTHER REGIONAL OBSERVATIONS

CITY           SKY/WX    TMP DP  RH WIND       PRES   REMARKS
NEW YORK CITY  CLEAR     75  55  49 CALM      30.07S
PHILADELPHIA   CLEAR     75  58  55 NW5       30.05S
PITTSBURGH     CLEAR     69  59  70 CALM      30.14F
ROANOKE        CLEAR     65  59  81 CALM      30.16S
RICHMOND       PTCLDY    69  65  86 CALM      30.07F
RALEIGH        MOCLDY    69  63  81 CALM      30.07S

$$

ANZ530>537-240500-
MARINE OBSERVATIONS

STATION/POSITION TIME  TEMP    WIND        PRES
                       AIR SEA DIR/SP/G
                 (UTC) (F)     (DEG/KT/KT) (MB)
THOMAS PT LIGHT  0400   74 76  290/  6/  7   N/A
BALT KEY BRIDGE  0336   74     250/  4/  4 1017.9F
COVE POINT       0336   75     270/  2/  4 1018.6F
LEWISETTA        0336   72 78  250/  4/  4 1017.8F
SOLOMONS ISLAND  0336   72 76  320/  2/  3 1017.6F
PINEY POINT      0348           10/  3/  4   N/A

$$





USA.gov is the U.S. government's official web portal to all federal, state and local government web resources and services.